Location: Mactaquac Provincial Park
(45.9573°N, 66.8897°W)
Time: 21:33:03
(UTC-03:00)

Cosmos 1867 - Visible Passes

Search period start: 20 October 2014 00:00
Search period end: 30 October 2014 00:00
Orbit: 778 x 798 km, 65.0° (Epoch: 19 October)

Date Brightness Start Highest point End Pass type
(mag) Time Alt. Az. Time Alt. Az. Time Alt. Az.
20 Oct 6.3 03:54:26 11° ESE 03:54:26 11° ESE 03:56:05 10° E visible
20 Oct 3.7 05:35:10 42° SSW 05:37:01 74° ESE 05:42:29 10° NE visible
20 Oct 4.7 07:16:39 10° W 07:21:10 26° NW 07:25:42 10° NNE visible
21 Oct 4.0 05:05:13 55° SE 05:05:28 56° ESE 05:10:48 10° NE visible
21 Oct 4.5 06:45:56 17° W 06:49:22 31° NW 06:54:13 10° NNE visible
22 Oct 4.9 04:35:09 37° E 04:35:09 37° E 04:39:04 10° NE visible
22 Oct 4.2 06:15:51 30° W 06:17:37 39° NW 06:22:44 10° NNE visible
23 Oct 5.8 04:04:59 22° ENE 04:04:59 22° ENE 04:07:15 10° NE visible
23 Oct 3.8 05:45:41 48° NW 05:45:54 49° NW 05:51:13 10° NNE visible
24 Oct 6.4 03:34:43 12° ENE 03:34:43 12° ENE 03:35:18 10° ENE visible
24 Oct 4.1 05:15:25 50° N 05:15:25 50° N 05:19:40 10° NNE visible
24 Oct 5.2 06:56:06 13° WNW 06:58:56 18° NNW 07:02:35 10° NNE visible
25 Oct 4.9 04:45:04 34° NNE 04:45:04 34° NNE 04:48:05 10° NE visible
25 Oct 5.0 06:25:46 19° NW 06:27:03 21° NNW 06:31:08 10° NNE visible
26 Oct 5.7 04:14:41 22° NE 04:14:41 22° NE 04:16:29 10° NE visible
26 Oct 4.8 05:55:22 25° NNW 05:55:22 25° NNW 05:59:40 10° NNE visible
27 Oct 6.3 03:44:14 13° NE 03:44:14 13° NE 03:44:49 10° NE visible
27 Oct 5.0 05:24:55 26° N 05:24:55 26° N 05:28:12 10° NNE visible
27 Oct 5.6 07:06:55 10° NW 07:08:51 12° NNW 07:10:48 10° N visible
28 Oct 5.4 04:54:26 23° N 04:54:26 23° N 04:56:42 10° NNE visible
28 Oct 5.6 06:35:07 12° NW 06:36:52 13° NNW 06:39:24 10° N visible
29 Oct 5.9 04:23:55 17° NNE 04:23:55 17° NNE 04:25:11 10° NNE visible
29 Oct 5.5 06:04:35 15° NNW 06:04:55 15° NNW 06:07:58 10° N visible
